Theta_e
297 298 299 298 300 290 295 297 294 295 298 298 293 297 297 296 292 287 293 295 296 297 301 303 302 310 319 322 323 324 325 330 331 331 332 333 334 335 336 337 338 339 339 338 339 338 338 339 339 339 339 340 342 342 341 342 344 346 347 349 348 347 346
299 300 299 299 301 300 296 292 295 301 302 299 292 286 288 288 284 286 294 291 291 291 290 300 300 304 315 320 321 323 324 329 329 330 331 333 333 334 336 338 339 340 340 339 339 340 339 339 340 340 341 342 343 344 343 342 344 344 347 349 349 348 347
297 300 299 298 300 302 296 293 301 295 288 289 291 291 285 285 285 285 290 293 294 293 294 298 300 300 302 315 321 321 322 327 329 330 331 333 334 334 335 337 338 338 339 339 339 340 340 340 341 341 342 343 343 345 345 344 344 346 347 350 351 351 350
295 296 296 287 292 299 300 300 297 299 295 294 290 291 290 289 284 288 285 291 289 297 295 299 301 302 302 305 317 320 322 326 329 330 331 332 333 334 335 337 338 339 339 340 340 340 340 340 341 342 343 344 344 345 347 346 346 347 348 349 351 350 350
294 288 292 290 292 290 292 293 292 296 296 297 295 295 294 290 286 284 285 285 290 298 304 303 304 307 306 305 306 320 323 326 329 331 332 332 333 334 335 336 338 339 339 340 341 341 342 342 343 344 344 344 345 346 347 347 346 346 347 349 350 351 351
288 289 296 296 295 294 292 291 290 294 293 291 288 287 296 294 290 284 287 286 293 303 312 312 314 317 318 318 311 315 323 326 329 331 332 333 333 334 335 336 337 339 339 341 342 342 342 343 343 343 344 345 346 346 348 348 348 347 347 348 350 351 352
288 292 295 298 298 299 296 296 294 296 294 293 289 282 288 292 292 296 292 288 292 305 307 307 313 319 320 320 313 316 321 325 329 330 332 333 334 334 335 336 337 338 339 341 342 342 342 343 343 344 345 345 346 347 348 349 349 348 349 349 350 351 352
291 292 296 299 299 297 294 294 296 294 291 292 291 290 293 290 292 288 288 289 292 304 306 307 311 321 322 323 319 314 322 325 328 330 331 331 332 334 335 337 338 339 339 341 341 342 342 343 343 344 345 346 347 348 350 350 349 350 350 351 351 351 351
283 285 291 294 297 295 291 290 293 294 294 294 294 295 296 290 292 291 289 285 291 301 305 306 314 320 321 322 326 324 323 326 328 329 331 332 332 333 334 335 337 339 339 340 340 341 342 343 344 345 345 346 347 348 350 351 351 352 352 353 352 351 351
274 275 276 282 284 287 290 292 292 293 292 291 290 286 289 284 291 291 289 287 295 301 303 304 312 319 320 323 326 330 325 325 328 329 330 331 332 333 334 335 336 338 339 340 341 341 342 343 344 345 346 346 347 349 350 353 353 353 353 354 354 353 352
280 281 285 290 292 289 286 289 290 291 292 293 292 291 289 285 289 288 290 295 294 296 299 302 315 318 319 320 323 327 329 327 329 328 332 332 334 334 333 334 336 338 339 339 340 341 342 343 344 345 346 346 347 348 350 352 354 355 355 355 355 354 354
286 288 288 289 291 287 289 289 289 291 291 292 291 287 285 292 288 283 292 295 292 294 299 306 315 317 319 318 320 322 329 332 333 334 337 343 338 339 339 336 335 337 338 339 340 340 341 342 344 345 346 347 347 348 349 352 354 355 356 356 355 355 355
289 289 289 291 290 290 290 290 290 289 291 291 289 290 292 292 288 286 292 294 293 296 300 315 316 317 317 319 319 321 325 330 333 333 334 335 336 337 339 339 339 338 338 339 339 340 341 342 342 343 345 346 347 348 349 352 354 355 357 356 356 355 355
288 289 289 291 289 289 289 290 291 291 291 290 291 291 292 291 290 293 294 294 296 299 308 316 317 318 318 317 323 322 319 321 324 326 329 331 333 335 336 336 337 338 340 341 341 341 342 343 343 343 344 345 346 347 348 350 353 356 357 356 356 356 355
286 288 291 290 290 289 288 289 290 291 292 291 292 291 292 295 293 295 296 295 296 304 313 316 318 316 318 317 319 320 318 319 320 320 321 324 326 328 331 334 336 337 339 340 342 343 344 343 343 343 345 346 347 348 348 349 351 356 357 356 356 356 356
283 288 288 289 290 290 288 287 289 290 290 289 290 290 292 291 290 293 293 293 300 307 313 317 316 313 314 315 316 318 318 319 320 320 319 320 322 324 327 330 332 334 337 338 339 341 342 343 346 345 344 346 347 348 349 349 350 355 358 357 357 357 357
281 287 289 288 288 286 283 285 287 290 291 292 293 294 298 301 301 296 292 298 306 309 314 311 313 311 312 313 315 317 318 318 317 319 320 322 323 323 325 327 330 332 335 335 338 340 340 341 343 345 347 348 347 348 349 350 351 352 356 358 357 357 358
281 287 288 288 283 276 278 291 293 292 291 292 290 294 304 307 308 305 308 311 312 311 310 310 311 310 311 314 317 317 318 317 316 317 318 320 322 323 324 325 327 329 332 334 336 337 339 343 343 346 346 345 349 349 348 349 350 350 350 354 358 358 358
279 285 286 282 275 278 290 294 295 295 294 294 294 302 305 306 306 307 308 307 308 309 310 311 314 314 313 314 316 314 317 318 317 316 317 318 320 321 323 324 326 329 330 331 334 336 337 342 345 343 345 346 345 347 348 348 351 351 351 351 355 358 358
284 281 279 271 276 288 293 293 295 297 297 301 301 301 303 305 306 305 305 307 308 309 309 311 313 315 314 314 316 315 316 317 319 318 315 317 319 319 321 322 325 326 327 331 333 336 341 342 344 347 347 348 347 345 346 348 348 349 349 350 353 357 358
277 280 279 280 288 288 289 290 293 299 295 296 296 291 297 304 307 306 305 306 307 307 309 310 311 313 315 311 310 317 315 315 316 319 319 318 318 319 321 322 323 326 327 329 332 338 339 340 342 343 347 350 347 346 345 345 348 349 349 349 351 356 358
285 281 278 278 278 277 283 293 300 303 301 302 303 297 295 305 305 307 307 304 304 305 307 308 309 312 310 305 307 312 316 316 315 316 319 319 319 320 320 322 323 325 327 329 332 336 336 337 340 341 343 345 346 344 345 347 347 347 349 350 352 354 357
284 282 278 275 273 280 292 294 298 299 301 303 303 295 291 303 304 306 306 305 305 305 305 306 308 306 301 302 307 310 312 315 316 315 316 317 319 319 320 320 322 324 326 328 331 333 336 336 338 340 342 343 345 347 347 348 351 351 350 350 351 352 356
284 282 279 278 282 279 291 296 298 299 301 303 295 282 286 301 304 305 306 305 305 304 305 306 305 302 298 300 305 314 312 314 317 316 315 315 316 318 319 321 324 325 328 327 328 330 334 336 338 340 341 343 346 349 351 352 352 351 352 354 355 356 356
286 286 283 284 285 293 297 297 299 299 303 299 284 280 294 301 302 305 306 305 306 305 305 305 302 305 306 307 310 316 315 312 313 317 319 317 317 317 319 321 326 324 326 327 328 330 333 335 337 339 341 343 345 347 350 351 352 354 355 355 355 356 357
282 283 282 282 286 293 297 299 299 301 297 285 283 296 301 302 303 306 307 305 306 306 305 305 305 307 309 311 311 312 314 314 313 315 318 317 317 318 321 323 324 324 325 327 329 330 332 333 336 337 339 340 343 347 350 352 355 359 359 356 355 355 356
285 283 283 282 278 292 299 298 296 300 289 291 297 298 301 306 306 306 306 306 307 306 304 306 307 307 308 309 309 310 312 314 313 314 316 316 315 316 318 319 322 324 323 326 327 328 330 332 334 336 339 341 344 346 348 353 357 357 357 358 358 355 354
279 280 279 281 290 292 300 297 290 294 298 300 301 301 299 303 304 305 305 305 306 307 306 305 306 307 307 308 308 309 311 313 314 315 316 316 317 316 319 320 321 324 322 325 326 327 328 330 333 335 336 335 338 340 342 347 347 348 349 352 356 356 354
285 282 285 291 293 296 298 298 298 299 301 304 304 303 302 301 302 305 304 304 305 306 306 306 306 306 307 307 308 308 310 313 314 314 314 314 316 317 318 319 322 323 322 323 325 325 326 327 328 330 330 330 333 335 339 342 342 343 345 349 354 356 354
293 294 295 296 296 296 296 298 300 300 303 304 304 302 300 302 303 304 303 304 305 306 307 306 306 306 307 308 308 308 309 311 314 315 314 314 316 318 320 319 321 322 322 323 322 322 324 325 325 327 327 328 329 332 336 338 340 341 344 348 352 354 355
287 283 297 295 294 295 296 296 299 300 300 300 301 300 300 301 302 303 304 304 305 306 306 306 306 306 308 308 308 309 308 310 312 313 313 313 314 317 318 320 321 320 322 321 320 321 321 322 323 324 324 326 328 331 333 336 338 340 343 347 350 353 354
288 288 292 293 294 295 296 296 296 296 297 298 299 300 301 301 303 303 303 304 305 307 306 307 306 307 308 308 308 308 308 309 311 312 312 312 314 317 320 320 321 320 321 318 318 319 320 320 322 323 323 324 326 329 332 334 336 338 342 346 347 351 354
289 292 293 294 294 294 296 298 298 298 298 297 298 299 300 301 301 302 303 305 305 306 306 308 307 307 308 308 308 308 309 310 312 312 312 312 314 317 319 319 320 319 321 318 318 319 319 320 321 321 322 323 325 327 329 332 334 335 341 344 347 350 355
284 284 287 291 287 287 292 295 296 297 298 298 298 300 300 301 301 302 302 303 305 306 307 307 307 307 308 308 308 309 310 312 314 313 312 312 314 317 319 318 318 319 322 319 318 319 318 320 321 321 321 322 324 326 327 330 332 334 340 343 346 349 353
283 289 292 292 293 293 294 296 297 298 299 300 299 300 300 301 302 303 302 302 302 303 305 308 307 307 308 309 310 310 311 312 313 314 314 314 314 315 318 316 316 318 320 320 318 318 318 320 320 320 320 321 322 324 325 328 330 334 339 341 345 348 346
291 293 294 295 293 292 295 298 299 299 300 300 301 301 302 302 302 303 303 303 302 303 305 307 308 308 309 310 310 309 310 311 312 312 314 315 315 316 317 316 317 319 320 318 317 318 319 320 319 320 320 321 321 322 324 326 329 333 338 337 340 344 342
290 294 296 296 295 297 298 299 300 300 301 303 301 301 302 303 303 305 304 304 305 305 305 306 308 309 309 310 310 310 309 311 313 314 318 321 317 316 316 317 318 319 319 317 318 318 319 319 319 319 319 320 321 321 322 324 327 331 335 335 335 339 340
Wind_Speed
7 11 12 8 7 4 7 2 2 4 5 3 0 3 2 2 1 7 3 6 5 6 7 8 4 6 11 14 16 15 14 15 15 15 16 16 17 17 17 18 18 20 18 18 19 20 19 19 19 20 21 20 21 19 19 20 19 18 19 18 18 16 16
6 16 10 2 8 6 4 4 10 14 2 5 3 3 2 1 3 4 2 4 6 4 6 7 3 10 13 15 17 18 17 17 18 17 17 18 18 19 19 18 17 19 18 20 19 19 21 21 22 22 22 21 20 19 20 20 19 19 18 18 18 16 16
10 13 10 6 12 12 7 3 10 6 4 2 4 2 1 2 1 1 2 2 3 4 8 6 11 5 11 16 16 16 15 17 19 19 20 21 20 17 16 17 17 17 17 17 18 20 21 22 21 21 21 20 17 17 19 20 21 20 20 16 16 14 15
7 4 8 6 12 20 16 12 12 6 3 1 4 2 1 5 2 1 5 1 4 4 3 8 13 12 9 12 19 18 19 20 19 19 19 20 19 20 20 19 18 17 18 19 19 19 20 21 20 19 19 18 20 19 19 19 19 19 18 18 17 17 16
4 5 5 6 8 10 11 11 9 11 4 5 4 3 1 2 2 2 2 2 3 5 7 9 12 12 13 11 9 18 18 20 22 21 21 20 21 19 18 18 18 18 19 20 19 18 18 18 17 17 18 20 20 18 19 20 20 20 20 20 18 17 15
5 5 4 5 6 3 4 0 6 8 10 12 8 7 5 3 1 2 2 7 4 5 9 12 15 18 20 21 9 15 20 21 22 21 21 21 20 20 19 18 17 17 17 17 17 16 15 15 16 18 18 17 18 19 18 19 19 19 20 19 17 17 16
12 6 8 10 4 1 5 10 9 9 5 4 3 2 6 4 4 3 4 3 3 2 10 15 14 13 18 19 13 12 18 16 18 19 19 20 21 21 20 18 17 16 16 17 17 17 16 17 18 18 17 17 18 19 18 18 19 20 19 19 17 15 15
8 3 6 6 14 9 8 8 9 10 10 9 6 6 4 3 7 6 7 3 2 11 13 14 14 13 17 17 14 9 14 17 19 18 16 17 17 17 17 17 16 16 15 15 14 15 15 15 16 18 17 17 17 17 18 18 20 20 19 17 16 16 16
12 6 5 7 6 11 5 6 8 9 8 10 9 4 3 1 3 3 2 5 4 14 14 15 16 18 20 22 21 9 7 16 15 16 16 16 18 17 17 17 17 16 15 16 16 16 16 15 15 16 16 17 17 18 17 18 18 18 18 16 16 17 16
3 7 4 6 11 12 10 5 10 9 9 13 10 6 6 2 4 5 0 4 6 15 14 17 16 19 20 21 21 18 12 6 3 12 12 14 15 15 17 18 16 17 17 17 16 16 15 15 16 15 16 16 17 17 18 17 16 17 17 16 17 16 16
5 4 4 3 7 8 8 13 9 10 9 8 6 2 2 2 5 8 6 1 11 17 19 17 18 18 21 23 23 22 18 10 13 5 3 4 2 5 11 14 14 12 12 16 17 17 17 17 16 15 16 16 16 16 16 16 16 16 16 16 16 16 16
5 7 7 6 6 10 11 12 12 9 8 9 8 5 6 3 7 9 4 4 11 14 16 12 13 15 18 18 21 22 19 18 17 19 18 17 18 19 17 12 5 2 10 13 15 17 18 17 17 16 16 16 16 15 16 15 15 15 14 16 16 16 16
4 4 4 6 7 8 10 12 9 10 9 9 9 6 6 5 3 8 9 9 10 12 11 8 7 10 11 12 17 18 17 17 20 21 20 19 18 18 17 15 14 12 8 5 2 1 4 9 14 16 15 15 13 12 12 13 14 15 15 15 15 16 15
6 6 7 7 10 9 9 8 9 8 8 10 11 12 8 7 7 8 12 9 8 7 9 8 8 6 8 9 11 16 20 21 20 20 19 19 19 17 15 14 14 15 15 12 6 5 4 4 3 5 6 9 12 13 13 13 13 13 13 15 15 15 15
4 6 6 7 9 10 11 9 10 12 9 9 11 11 10 8 7 6 7 4 4 5 9 6 6 6 7 11 15 13 16 20 21 20 19 18 17 16 15 15 15 14 14 14 14 13 10 5 3 7 8 8 8 9 9 9 9 10 12 12 14 14 15
4 2 6 9 11 13 11 7 7 10 10 8 7 8 5 7 9 9 11 5 2 5 8 7 7 11 12 11 12 12 13 17 18 18 17 17 15 15 15 14 15 15 14 14 12 12 11 11 10 3 3 6 9 12 12 12 11 11 13 14 15 15 15
3 2 5 9 9 10 11 4 3 3 7 5 9 11 8 6 4 1 3 5 5 3 3 5 7 9 8 10 11 11 13 13 14 14 14 14 13 13 14 15 15 14 13 12 10 10 9 9 8 8 10 4 6 8 9 10 11 13 16 18 17 17 16
1 4 7 6 7 5 7 0 9 6 10 14 13 9 4 6 6 2 3 2 4 4 5 5 4 5 5 5 7 11 9 10 11 11 11 11 12 13 13 14 14 13 12 12 11 9 9 9 8 7 5 8 10 3 7 7 9 9 9 10 14 15 16
2 2 5 7 4 10 3 3 6 7 9 12 12 3 8 7 9 9 6 7 8 8 7 4 1 4 4 5 10 12 12 9 8 8 9 10 12 13 14 15 14 14 14 14 15 13 11 11 10 9 7 7 9 11 6 9 11 12 9 8 9 13 15
1 3 1 0 9 3 9 12 9 8 5 4 12 3 8 10 9 8 7 7 9 9 9 10 6 2 8 7 11 12 12 11 10 11 10 11 11 11 10 10 11 12 13 11 13 15 10 9 10 8 7 6 6 9 17 11 5 6 8 10 9 9 12
1 3 5 9 8 15 14 6 3 5 2 5 5 3 3 2 7 9 9 9 9 10 10 11 11 9 6 3 7 11 12 12 10 9 9 11 11 10 10 10 9 9 9 11 11 10 11 9 8 11 11 8 5 7 11 15 8 5 4 7 9 10 13
4 3 5 4 2 6 3 2 6 6 5 3 3 2 3 2 9 11 9 9 11 13 13 13 14 8 4 8 7 9 11 9 11 9 7 8 8 10 11 10 8 7 7 10 10 9 12 11 9 10 10 9 7 4 9 14 10 7 8 10 10 9 10
1 2 4 3 5 5 3 5 7 11 7 5 5 2 3 3 9 10 10 10 10 11 13 14 12 8 5 3 5 7 9 10 10 10 9 9 10 9 10 10 13 12 8 8 9 10 9 11 12 12 13 13 9 7 8 12 10 7 7 9 10 11 10
3 3 4 7 3 4 2 6 9 11 11 7 1 5 2 5 10 10 9 7 9 10 10 10 7 7 6 8 8 7 8 7 8 11 12 11 11 9 9 8 9 9 11 9 9 9 9 10 11 12 12 11 9 8 9 9 8 7 7 7 7 9 11
5 6 7 5 6 2 4 7 9 11 10 3 4 7 1 7 10 9 7 7 7 9 8 8 6 5 4 7 9 5 8 9 9 9 9 8 9 10 11 10 10 9 9 10 10 9 8 9 10 10 10 11 11 10 9 9 9 8 8 7 7 7 7
5 5 5 8 6 1 4 4 9 6 4 4 5 1 4 7 9 10 6 6 4 5 7 6 6 8 10 9 9 7 8 7 6 6 8 10 9 7 7 9 10 9 9 9 10 10 10 10 9 8 9 10 11 10 10 9 9 10 9 8 7 8 7
0 0 4 4 7 1 5 7 8 2 1 2 2 4 4 4 6 8 8 5 5 3 6 8 7 9 11 10 10 8 8 7 8 8 9 9 10 11 11 11 11 10 8 9 10 11 11 11 10 10 10 10 11 11 12 12 12 13 13 12 10 9 9
2 3 4 5 1 1 2 3 3 3 3 5 4 2 6 4 3 5 7 6 5 5 5 6 8 10 10 10 10 10 8 8 7 8 9 10 10 10 9 9 10 11 9 8 9 9 9 10 11 11 12 12 12 12 12 12 13 13 13 13 12 11 10
3 5 6 4 2 2 2 2 4 6 8 3 2 2 4 6 5 4 6 9 8 7 7 6 6 9 10 9 9 9 10 8 7 8 10 10 12 11 11 11 11 10 11 11 10 10 9 11 11 11 11 12 13 13 12 12 12 13 13 13 13 12 11
4 8 12 12 7 3 7 5 5 6 4 3 1 2 5 4 5 5 7 8 10 10 8 8 6 6 8 9 9 9 10 9 7 6 8 9 9 11 11 11 12 11 10 9 10 11 11 12 12 10 11 12 14 13 14 13 12 12 12 12 13 13 11
3 5 0 1 2 6 5 9 7 3 3 3 4 5 4 6 6 7 7 8 9 10 9 9 10 9 8 8 8 7 8 9 7 6 7 8 8 8 9 11 11 10 10 10 11 12 13 12 11 12 13 12 12 13 14 14 13 13 13 12 12 13 11
4 8 6 6 4 6 8 6 2 6 9 10 9 7 7 8 7 7 8 7 9 7 9 10 10 10 8 7 7 7 7 8 6 6 6 8 8 7 6 7 9 8 8 10 10 11 11 11 11 11 12 12 13 13 13 14 14 14 13 11 11 13 14
6 8 11 8 9 10 5 2 4 6 7 10 12 12 11 10 10 8 7 5 6 7 9 10 11 11 10 8 7 8 7 7 6 5 5 6 7 7 7 7 8 8 6 8 8 9 10 9 10 11 12 12 13 15 15 14 14 13 12 13 11 12 12
5 5 6 1 5 8 5 6 7 8 8 9 12 12 11 10 9 8 8 8 6 7 7 8 9 11 10 9 6 8 8 8 7 6 4 4 5 7 6 6 7 8 8 8 8 9 9 10 10 11 12 12 13 14 14 13 13 13 12 12 11 10 11
6 6 4 2 5 8 11 10 7 8 9 9 11 12 12 11 10 10 10 9 7 6 7 7 9 10 10 10 8 8 8 8 7 6 5 4 4 5 6 8 9 10 8 9 8 10 10 11 11 11 11 12 13 14 14 14 13 12 11 10 9 8 8
5 4 5 4 3 6 8 9 11 10 9 9 10 11 11 11 11 11 11 9 10 9 8 9 8 9 10 10 9 9 8 7 7 6 5 5 4 4 4 6 7 9 9 9 9 10 9 9 10 12 10 10 13 14 14 14 13 13 11 10 12 8 5
5 4 4 4 4 7 8 9 9 9 9 9 10 11 11 12 11 11 12 11 9 10 9 9 9 9 10 10 9 9 7 5 5 6 6 4 2 2 4 6 8 9 8 8 8 8 8 9 9 9 10 11 12 13 14 15 14 13 12 10 12 11 6
Wind_Direction
52 358 342 340 13 21 301 12 225 221 204 143 153 323 246 136 57 258 234 316 297 291 302 254 193 218 203 202 208 204 194 187 179 187 190 193 194 191 193 194 193 190 184 183 183 183 182 180 180 184 185 184 184 183 185 186 185 184 186 188 190 193 193
28 343 323 231 89 4 357 357 327 298 225 130 123 203 322 94 156 255 243 240 299 15 288 296 185 179 209 204 208 202 197 179 182 191 189 193 193 196 195 195 195 193 189 185 184 184 183 182 182 185 186 185 184 183 184 185 184 186 189 188 191 191 192
348 344 353 18 355 28 90 254 269 16 336 7 323 92 264 279 238 254 291 250 272 179 261 304 290 234 198 211 209 210 193 183 189 191 192 193 194 191 192 195 191 193 194 189 187 187 186 186 184 185 185 183 183 184 185 185 186 188 187 189 191 192 192
328 359 26 29 339 338 1 4 10 333 273 66 6 198 186 121 246 43 291 8 237 241 237 251 257 269 257 193 209 206 196 187 192 191 191 194 192 191 195 191 188 190 192 192 190 187 187 188 186 184 181 181 183 185 184 188 188 186 187 189 189 192 194
29 23 17 34 358 345 340 358 356 2 357 264 194 290 237 192 191 182 192 328 280 330 302 338 334 327 312 295 205 216 202 193 193 189 190 192 190 194 196 192 190 187 190 192 191 189 189 189 187 182 181 183 185 183 186 186 187 188 190 192 190 193 191
12 125 43 327 307 278 260 182 44 352 359 7 16 304 334 6 36 214 196 238 253 30 4 0 343 342 336 322 271 199 216 201 191 190 192 187 188 193 190 192 195 191 186 189 191 190 187 185 185 185 184 184 183 186 187 187 188 190 191 193 193 192 193
287 298 288 277 249 232 83 69 20 7 1 20 42 353 314 345 300 278 225 223 205 23 15 354 350 337 333 326 301 189 202 200 195 195 192 187 188 188 188 188 192 192 188 186 187 188 186 186 187 187 184 186 187 187 185 187 189 192 192 192 193 192 194
277 302 197 103 54 29 20 26 16 4 359 347 316 263 268 281 329 26 349 279 249 345 3 348 333 341 347 346 332 207 191 189 193 194 185 186 190 191 187 185 187 187 186 183 183 187 188 187 187 189 189 188 186 186 188 188 191 191 190 191 192 193 195
325 30 2 360 19 46 54 327 340 343 325 341 329 303 26 359 148 72 326 253 5 313 342 340 343 354 1 353 352 355 207 188 188 188 183 185 185 185 183 186 186 184 182 183 186 187 188 188 190 192 190 188 187 189 188 189 191 189 190 189 191 194 195
310 305 24 359 339 336 325 313 324 332 344 345 348 15 334 31 302 17 190 284 287 304 331 339 348 355 2 358 356 8 22 17 211 182 183 181 182 182 185 185 182 183 187 188 186 185 186 188 191 192 192 191 191 190 190 188 186 187 189 189 191 192 195
210 230 246 222 270 298 300 315 322 321 338 326 321 281 351 310 308 318 264 170 320 321 336 343 0 356 2 360 358 8 14 21 45 38 119 140 162 205 190 185 186 186 186 188 189 186 186 188 191 191 192 193 194 193 190 186 186 186 186 188 190 192 194
217 236 258 272 291 289 295 305 311 309 316 319 319 322 290 287 357 307 253 21 335 315 325 345 4 3 10 2 350 3 16 29 49 67 62 58 55 49 39 26 9 223 205 200 193 189 188 190 191 190 192 194 194 192 190 186 183 183 185 188 190 193 194
286 285 302 323 318 303 297 299 302 312 316 314 311 288 295 317 266 259 296 328 317 311 329 354 16 31 24 13 347 341 5 27 39 49 50 48 51 49 44 42 41 33 38 44 26 304 237 210 197 193 193 196 195 194 190 186 182 185 182 185 189 193 195
327 328 328 330 316 311 312 308 311 294 298 295 292 289 283 277 266 263 282 295 304 311 337 347 360 44 61 49 13 346 7 22 27 33 39 42 39 36 37 35 42 42 36 24 31 85 97 149 202 221 214 204 198 194 192 187 185 182 179 185 189 192 198
313 321 324 320 321 324 315 319 310 303 292 286 288 297 290 279 282 277 272 322 336 319 330 340 346 350 46 34 40 9 1 15 21 23 25 30 31 25 25 28 27 30 33 34 32 30 21 16 109 153 167 178 192 202 197 193 186 179 180 184 189 194 198
306 333 340 338 338 326 311 311 302 281 275 275 283 285 301 287 281 280 290 312 316 291 326 329 32 18 29 34 37 36 16 12 21 19 12 15 20 21 20 21 22 19 23 31 31 27 17 14 355 351 162 175 186 194 187 190 189 176 182 187 192 195 196
264 331 352 342 332 341 320 293 207 304 318 308 313 315 327 344 340 354 296 219 223 252 296 346 29 36 17 22 28 32 32 21 22 21 8 1 7 15 14 16 15 17 14 9 21 27 11 353 7 20 345 320 192 185 195 196 183 182 184 187 189 192 193
257 3 353 348 358 319 246 150 336 344 338 325 316 304 6 358 359 279 244 288 316 331 342 16 10 56 37 37 36 49 45 22 23 22 11 3 4 6 11 11 12 8 7 358 351 9 5 349 346 357 38 359 314 242 180 183 187 189 181 188 191 193 192
285 352 20 357 301 251 243 354 315 322 307 299 292 301 21 3 351 349 341 348 349 343 328 318 312 145 122 78 48 39 35 42 32 25 19 5 9 11 3 7 7 2 1 352 344 346 357 352 346 338 360 32 349 305 253 203 202 199 199 198 198 194 195
22 45 71 302 240 264 315 302 306 303 298 343 354 12 15 350 339 342 336 343 342 330 331 331 330 206 180 92 61 39 27 30 24 14 20 4 6 12 6 360 358 5 354 348 337 327 332 351 343 331 330 18 23 310 297 287 236 208 193 198 206 203 202
189 199 172 232 314 315 297 302 55 43 42 338 12 313 262 323 318 345 330 336 342 339 340 341 335 332 183 47 55 42 23 14 18 22 15 3 360 359 0 2 4 355 343 342 333 323 328 351 356 336 332 347 19 331 289 267 254 235 221 229 221 207 202
161 213 278 313 347 266 313 54 5 11 351 311 303 236 264 357 343 343 339 341 341 339 342 345 337 317 62 10 2 24 10 7 2 9 12 359 355 356 352 348 355 2 351 340 340 337 333 343 349 324 317 324 328 320 291 279 261 235 222 227 225 222 215
98 206 209 213 218 238 107 336 335 328 324 311 253 263 250 5 339 332 348 342 344 347 341 340 339 14 24 327 348 4 0 355 357 353 4 358 350 355 358 354 348 345 356 347 345 338 338 337 335 325 324 323 310 289 272 269 270 264 246 236 231 231 224
206 215 238 248 216 259 298 328 334 323 313 302 37 331 242 330 328 320 337 351 340 341 343 338 350 30 353 327 331 341 349 354 351 350 351 351 349 350 354 358 352 338 339 349 353 349 343 331 326 323 322 311 295 278 275 278 285 277 269 267 253 241 224
234 233 263 285 281 291 18 339 327 322 311 286 269 249 350 320 312 316 321 344 337 335 338 352 342 336 311 288 305 334 339 356 360 346 340 344 340 345 351 354 354 353 352 348 342 340 336 327 326 323 313 304 301 299 295 297 298 295 289 278 266 254 227
212 219 239 248 269 254 342 316 334 300 318 253 222 29 294 278 297 303 309 318 321 329 326 329 319 311 315 315 334 327 340 344 337 335 335 336 337 345 346 348 356 360 356 345 341 344 341 334 331 315 304 301 303 304 302 302 305 308 311 297 274 262 237
342 75 260 275 272 191 356 335 340 57 97 228 37 299 286 273 283 297 298 292 279 303 308 313 312 315 318 319 328 322 320 339 337 334 336 338 339 341 346 352 357 357 356 351 352 346 341 337 332 320 314 314 323 324 322 324 330 330 324 315 297 271 250
181 211 208 224 186 266 299 46 274 296 281 286 307 322 295 290 281 290 294 294 296 295 283 295 310 311 312 313 324 324 321 329 329 331 333 336 340 344 343 348 347 351 353 349 348 348 342 344 343 343 342 337 331 327 326 333 329 324 320 315 306 284 258
172 213 228 250 243 272 251 248 241 268 275 269 252 234 259 289 302 302 298 302 305 299 283 280 288 301 303 306 313 319 314 316 326 332 333 334 336 340 341 346 345 350 350 344 348 349 348 352 352 348 344 337 329 327 329 328 325 321 317 314 309 292 266
273 273 261 273 291 325 312 296 279 275 282 276 277 292 305 285 287 295 294 297 297 298 295 291 285 273 285 295 307 312 312 308 312 323 322 327 334 337 339 346 349 345 342 347 353 352 350 356 351 348 343 339 333 328 327 327 323 319 315 312 310 298 273
23 288 44 211 282 299 292 296 294 308 311 304 304 299 285 289 292 297 296 290 291 292 299 294 286 277 273 284 293 299 303 305 307 318 318 316 322 330 339 340 343 344 345 348 351 355 355 351 349 348 344 338 330 326 328 328 325 321 315 311 312 308 280
204 254 268 276 281 268 275 267 304 324 321 315 306 297 291 285 283 281 283 290 291 304 306 302 296 286 273 274 284 292 296 297 295 302 305 309 313 322 331 334 340 337 344 348 343 349 354 348 345 345 344 340 333 328 328 332 330 322 316 315 314 311 298
254 283 283 291 310 296 276 276 302 312 309 305 302 302 301 295 289 285 279 277 285 289 291 299 297 291 281 264 267 280 289 290 282 278 283 291 295 305 333 344 342 333 334 341 340 346 351 346 345 345 344 340 338 337 335 331 330 322 314 316 314 308 302
270 241 259 25 329 306 286 279 290 303 302 299 295 295 291 286 286 288 286 282 278 276 275 282 288 288 286 277 262 269 278 276 271 271 275 282 300 313 319 336 335 330 338 343 339 346 349 346 347 349 350 341 338 340 333 328 328 322 316 317 314 311 310
236 237 232 213 238 264 267 283 294 294 295 292 293 291 292 290 286 284 283 284 279 274 274 268 273 281 278 276 270 266 272 266 266 264 261 277 293 314 324 340 340 340 336 343 335 350 351 349 347 344 346 346 344 339 334 329 325 320 319 317 312 311 328
241 222 248 250 222 246 281 295 298 293 291 288 290 295 293 289 286 285 281 274 277 274 264 263 260 264 268 269 268 268 266 261 267 271 263 260 268 292 320 327 331 332 336 344 344 344 341 347 348 342 339 349 350 341 336 333 328 327 327 327 318 314 313
214 214 206 216 231 260 270 280 280 287 289 293 298 298 299 297 292 286 280 279 267 264 265 266 262 252 254 259 258 259 258 261 262 263 262 264 275 321 326 329 333 329 333 339 336 336 336 342 345 345 341 349 347 346 339 338 333 333 333 333 324 318 309